Regional Weather Roundup
Issued by NWS

Home | Current Version | Previous Version | Text Only | Print | Product List | Glossary Off
Versions: 1 2 3 4 5 6 7 8 9 10 11 12 13 14 15 16 17 18 19 20 21 22 23 24 25 26 27 28 29 30 31 32 33 34 35 36 37 38 39 40 41 42 43 44 45 46 47 48 49 50

000
ASUS43 KIND 221659
RWRIN

WEATHER ROUNDUP FOR INDIANA
NATIONAL WEATHER SERVICE INDIANAPOLIS IN
1200 PM EST THU FEB 22 2018

NOTE: "FAIR" INDICATES FEW OR NO CLOUDS BELOW 12,000 FEET WITH NO
SIGNIFICANT WEATHER AND/OR OBSTRUCTIONS TO VISIBILITY.

* - STATION DOES NOT REPORT WEATHER SUCH AS PRECIPITATION OR FOG.

+ - STATION NOT QUALITY CONTROLLED BY THE NATIONAL WEATHER SERVICE.
    USE DATA WITH CAUTION...ESPECIALLY DEWPOINT AND RELATIVE
    HUMIDITY OBSERVATIONS.

INZ001>003-010>013-019-020-221800-
NORTHWEST INDIANA

CITY           SKY/WX    TMP DP  RH WIND       PRES   REMARKS
GARY /AIRPORT/ PTSUNNY   37  32  81 NE14      30.54F WCI  29
MICHIGAN CITY+ PTSUNNY   39  32  75 NE8       30.52F WCI  34
MONTICELLO +   CLOUDY    38  34  85 E9G16     30.49F WCI  32
RENSSELAER +   CLOUDY    41  34  75 E21       30.49S

$$

LMZ046-743>745-221800-
SOUTHERN LAKE MICHIGAN

STATION/POSITION TIME  TEMP    WIND        PRES    WAVE
                       AIR SEA DIR/SP/G            HT
                 (UTC) (F)     (DEG/KT/KT) (MB)    (FT)
BURNS HARBOR     1640   36      70/  9/ 12 1033.9F
MICHIGAN CITY    1630   35      60/ 10/ 13   N/A

$$

INZ004-005-014>016-021>024-221800-
NORTH CENTRAL INDIANA

CITY           SKY/WX    TMP DP  RH WIND       PRES   REMARKS
ELKHART        FAIR      37  27  65 E14G20    30.54F WCI  29
GOSHEN         CLOUDY    38  30  73 E15       30.54F WCI  29
SOUTH BEND     PTSUNNY   38  28  67 E12       30.52F WCI  30
WARSAW +       LGT RAIN  36  32  87 MISG      30.52F

$$

INZ006>009-017-018-025>027-221800-
NORTHEAST INDIANA

CITY           SKY/WX    TMP DP  RH WIND       PRES   REMARKS
AUBURN +       PTSUNNY   34  32  93 NE16      30.57F WCI  23
FORT WAYNE     LGT RAIN  37  34  89 E17       30.55F WCI  27
KENDALLVILLE + CLOUDY    34  29  82 E13       30.56F WCI  25

$$

INZ028-029-035-036-043>045-051>053-221800-
WEST CENTRAL INDIANA

CITY           SKY/WX    TMP DP  RH WIND       PRES   REMARKS
CRAWFORDSVL +  CLOUDY    37  37 100 E14         N/A  WCI  28
GREENCASTLE +  CLOUDY    39  36  87 E14G20    30.43S WCI  31
LAFAYETTE      CLOUDY    40  37  89 E16       30.46F WCI  31
TERRE HAUTE    CLOUDY    43  39  86 E15       30.42S

$$

INZ030>032-037>040-046>048-054>057-064-065-221800-
CENTRAL INDIANA

CITY           SKY/WX    TMP DP  RH WIND       PRES   REMARKS
ANDERSON       CLOUDY    37  36  93 NE12G23   30.47F WCI  30
COLUMBUS       CLOUDY    39 N/A N/A NE13      30.44S WCI  32
GREENWOOD *+   CLOUDY    38 -49   2 E16       30.45R WCI  29
INDIANAPOLIS   PTSUNNY   41  37  86 E16G23    30.43F
-EAGLE CREEK   CLOUDY    41  35  79 E12G21    30.44F
KOKOMO +       CLOUDY    38  35  89 E20       30.48F WCI  28
MT COMFORT *+  CLOUDY    39  39 100 E15       30.46S WCI  31
SHELBYVILLE    CLOUDY    42  36  79 NE16      30.44R

$$

INZ033-034-041-042-049-050-058-059-221800-
EAST CENTRAL INDIANA

CITY           SKY/WX    TMP DP  RH WIND       PRES   REMARKS
MUNCIE         CLOUDY    39  36  89 E15G22    30.47F WCI  31
RICHMOND +     CLOUDY    37  37 100 NE22G28   30.43F WCI  27

$$

INZ060-061-067>069-081>083-085>088-221800-
SOUTHWEST INDIANA

CITY           SKY/WX    TMP DP  RH WIND       PRES   REMARKS
EVANSVILLE     CLOUDY    46  45  96 E8        30.39S
HUNTINGBURG +  CLOUDY    46  43  89 E9        30.39S

$$

INZ062-063-066-070>080-084-089>092-221800-
SOUTH CENTRAL AND SOUTHEAST INDIANA

CITY           SKY/WX    TMP DP  RH WIND       PRES   REMARKS
BLOOMINGTON    CLOUDY    43  40  89 E13       30.40S
FRENCH LICK *+ CLOUDY    43 N/A N/A NE14      30.39S
SEYMOUR +      CLOUDY    45  41  87 E13G18    30.42S

$$





USA.gov is the U.S. government's official web portal to all federal, state and local government web resources and services.